owner,sensor,date,latitude,longitude,vertical_datum,direction_of_sea_water_velocity,sea_water_speed,upward_sea_water_velocity,qcFlag 
TABS,ioos:station:wmo:42045:1,1999-02-01T00:00:00Z,26.2168,-96.4998,2.0,338.6981881,5.753060055,-99999.0,'11133222,11111222,99999999' 
TABS,ioos:station:wmo:42045:1,1999-02-01T00:30:00Z,26.2168,-96.4998,2.0,14.61509578,28.33688233,-99999.0,'11111222,11111222,99999999' 
TABS,ioos:station:wmo:42045:1,1999-02-01T01:00:00Z,26.2168,-96.4998,2.0,12.28776298,22.41345355,-99999.0,'11111222,11111222,99999999' 
TABS,ioos:station:wmo:42045:1,1999-02-01T01:30:00Z,26.2168,-96.4998,2.0,4.056746393,21.0627681,-99999.0,'11111222,11111222,99999999' 
TABS,ioos:station:wmo:42045:1,1999-02-01T02:00:00Z,26.2168,-96.4998,2.0,13.75451211,36.97015283,-99999.0,'11111222,11111222,99999999' 
TABS,ioos:station:wmo:42045:1,1999-02-01T02:30:00Z,26.2168,-96.4998,2.0,13.92969801,37.76043697,-99999.0,'11111222,11111222,99999999' 
TABS,ioos:station:wmo:42045:1,1999-02-01T03:00:00Z,26.2168,-96.4998,2.0,13.81000203,36.82447148,-99999.0,'11111222,11111222,99999999' 
TABS,ioos:station:wmo:42045:1,1999-02-01T03:30:00Z,26.2168,-96.4998,2.0,16.13338758,36.45568954,-99999.0,'11111222,11111222,99999999' 
TABS,ioos:station:wmo:42045:1,1999-02-01T04:00:00Z,26.2168,-96.4998,2.0,18.20806708,36.7080073,-99999.0,'11111222,11111222,99999999' 
TABS,ioos:station:wmo:42045:1,1999-02-01T05:30:00Z,26.2168,-96.4998,2.0,24.83349694,33.00154693,-99999.0,'11111222,11111222,99999999' 
TABS,ioos:station:wmo:42045:1,1999-02-01T06:00:00Z,26.2168,-96.4998,2.0,29.08965744,31.88149306,-99999.0,'11111222,11111222,99999999' 
TABS,ioos:station:wmo:42045:1,1999-02-01T06:30:00Z,26.2168,-96.4998,2.0,34.05429983,32.73351952,-99999.0,'11111222,11111222,99999999' 
TABS,ioos:station:wmo:42045:1,1999-02-01T07:00:00Z,26.2168,-96.4998,2.0,36.9209578,31.49601245,-99999.0,'11111222,11111222,99999999' 
TABS,ioos:station:wmo:42045:1,1999-02-01T07:30:00Z,26.2168,-96.4998,2.0,37.90710769,29.8348873,-99999.0,'11111222,11111222,99999999' 
TABS,ioos:station:wmo:42045:1,1999-02-01T08:00:00Z,26.2168,-96.4998,2.0,44.02236856,30.66461479,-99999.0,'11111222,11111222,99999999' 
TABS,ioos:station:wmo:42045:1,1999-02-01T08:30:00Z,26.2168,-96.4998,2.0,45.77699236,30.76904451,-99999.0,'11111222,11111222,99999999' 
TABS,ioos:station:wmo:42045:1,1999-02-01T09:00:00Z,26.2168,-96.4998,2.0,41.63659868,32.29970898,-99999.0,'11111222,11111222,99999999' 
TABS,ioos:station:wmo:42045:1,1999-02-01T09:30:00Z,26.2168,-96.4998,2.0,40.59935412,30.22600536,-99999.0,'11111222,11111222,99999999' 
TABS,ioos:station:wmo:42045:1,1999-02-01T10:00:00Z,26.2168,-96.4998,2.0,38.15403995,29.18532851,-99999.0,'11111222,11111222,99999999' 
TABS,ioos:station:wmo:42045:1,1999-02-01T10:30:00Z,26.2168,-96.4998,2.0,37.05698297,28.1941501,-99999.0,'11111222,11111222,99999999' 
TABS,ioos:station:wmo:42045:1,1999-02-01T11:00:00Z,26.2168,-96.4998,2.0,34.84364696,26.86680107,-99999.0,'11111222,11111222,99999999' 
TABS,ioos:station:wmo:42045:1,1999-02-01T11:30:00Z,26.2168,-96.4998,2.0,38.26481509,26.94998516,-99999.0,'11111222,11111222,99999999' 
TABS,ioos:station:wmo:42045:1,1999-02-01T12:00:00Z,26.2168,-96.4998,2.0,40.70604901,26.72587697,-99999.0,'11111222,11111222,99999999' 
TABS,ioos:station:wmo:42045:1,1999-02-01T12:30:00Z,26.2168,-96.4998,2.0,40.21825399,24.00497657,-99999.0,'11111222,11111222,99999999' 
TABS,ioos:station:wmo:42045:1,1999-02-01T13:00:00Z,26.2168,-96.4998,2.0,37.87721876,23.77967409,-99999.0,'11111222,11111222,99999999' 
TABS,ioos:station:wmo:42045:1,1999-02-01T13:30:00Z,26.2168,-96.4998,2.0,46.57280595,23.18769501,-99999.0,'11111222,11111222,99999999' 
TABS,ioos:station:wmo:42045:1,1999-02-01T14:00:00Z,26.2168,-96.4998,2.0,57.90442681,26.91337957,-99999.0,'11111222,11111222,99999999' 
TABS,ioos:station:wmo:42045:1,1999-02-01T14:30:00Z,26.2168,-96.4998,2.0,50.68530207,12.70556571,-99999.0,'11111222,11111222,99999999' 
TABS,ioos:station:wmo:42045:1,1999-02-01T15:00:00Z,26.2168,-96.4998,2.0,59.20799628,17.17051543,-99999.0,'11111222,11111222,99999999' 
TABS,ioos:station:wmo:42045:1,1999-02-01T15:30:00Z,26.2168,-96.4998,2.0,75.98188653,15.35735654,-99999.0,'11111222,11111222,99999999' 
TABS,ioos:station:wmo:42045:1,1999-02-01T16:00:00Z,26.2168,-96.4998,2.0,187.7096636,8.870186018,-99999.0,'11133222,11111222,99999999' 
TABS,ioos:station:wmo:42045:1,1999-02-01T16:30:00Z,26.2168,-96.4998,2.0,204.9333816,7.068840075,-99999.0,'11133222,11111222,99999999' 
TABS,ioos:station:wmo:42045:1,1999-02-01T17:00:00Z,26.2168,-96.4998,2.0,174.2511396,5.990125207,-99999.0,'11133222,11111222,99999999' 
TABS,ioos:station:wmo:42045:1,1999-02-01T17:30:00Z,26.2168,-96.4998,2.0,210.5556824,6.746925226,-99999.0,'11133222,11111222,99999999' 
TABS,ioos:station:wmo:42045:1,1999-02-01T18:00:00Z,26.2168,-96.4998,2.0,216.3806031,7.030256041,-99999.0,'11133222,11111222,99999999' 
TABS,ioos:station:wmo:42045:1,1999-02-01T18:30:00Z,26.2168,-96.4998,2.0,201.7679908,6.417631962,-99999.0,'11133222,11111222,99999999' 
TABS,ioos:station:wmo:42045:1,1999-02-01T19:00:00Z,26.2168,-96.4998,2.0,191.8073092,6.548564728,-99999.0,'11133222,11111222,99999999' 
TABS,ioos:station:wmo:42045:1,1999-02-01T19:30:00Z,26.2168,-96.4998,2.0,215.7187707,5.875185103,-99999.0,'11133222,11111222,99999999' 
TABS,ioos:station:wmo:42045:1,1999-02-01T20:00:00Z,26.2168,-96.4998,2.0,223.198528,6.749133278,-99999.0,'11133222,11111222,99999999' 
TABS,ioos:station:wmo:42045:1,1999-02-01T20:30:00Z,26.2168,-96.4998,2.0,279.3431239,11.0262641,-99999.0,'11111222,11111222,99999999' 
TABS,ioos:station:wmo:42045:1,1999-02-01T21:00:00Z,26.2168,-96.4998,2.0,286.6492019,11.97187538,-99999.0,'11111222,11111222,99999999' 
TABS,ioos:station:wmo:42045:1,1999-02-01T21:30:00Z,26.2168,-96.4998,2.0,288.6376739,11.64041666,-99999.0,'11111222,11111222,99999999' 
TABS,ioos:station:wmo:42045:1,1999-02-01T22:00:00Z,26.2168,-96.4998,2.0,292.8641852,9.213929672,-99999.0,'11133222,11111222,99999999' 
TABS,ioos:station:wmo:42045:1,1999-02-01T22:30:00Z,26.2168,-96.4998,2.0,288.1363955,9.091672013,-99999.0,'11133222,11111222,99999999' 
TABS,ioos:station:wmo:42045:1,1999-02-01T23:00:00Z,26.2168,-96.4998,2.0,40.02832773,8.567012315,-99999.0,'11133222,11111222,99999999' 
TABS,ioos:station:wmo:42045:1,1999-02-03T20:30:00Z,26.2168,-96.4998,2.0,118.2298738,27.39892699,-99999.0,'11111222,11111222,99999999' 
TABS,ioos:station:wmo:42045:1,1999-02-03T21:00:00Z,26.2168,-96.4998,2.0,120.5722854,22.84585958,-99999.0,'11111222,11111222,99999999' 
TABS,ioos:station:wmo:42045:1,1999-02-03T21:30:00Z,26.2168,-96.4998,2.0,127.2249958,18.71235955,-99999.0,'11111222,11111222,99999999' 
TABS,ioos:station:wmo:42045:1,1999-02-03T22:00:00Z,26.2168,-96.4998,2.0,133.4012779,22.55841528,-99999.0,'11111222,11111222,99999999' 
TABS,ioos:station:wmo:42045:1,1999-02-03T22:30:00Z,26.2168,-96.4998,2.0,134.1125783,27.39660198,-99999.0,'11111222,11111222,99999999' 
TABS,ioos:station:wmo:42045:1,1999-02-03T23:00:00Z,26.2168,-96.4998,2.0,140.2420234,23.06329118,-99999.0,'11111222,11111222,99999999' 
TABS,ioos:station:wmo:42045:1,1999-02-03T23:30:00Z,26.2168,-96.4998,2.0,145.4318662,13.3948087,-99999.0,'11111222,11111222,99999999' 
TABS,ioos:station:wmo:42045:1,1999-02-04T00:00:00Z,26.2168,-96.4998,2.0,137.295653,31.42076065,-99999.0,'11111222,11111222,99999999' 
TABS,ioos:station:wmo:42045:1,1999-02-04T00:30:00Z,26.2168,-96.4998,2.0,138.5993528,21.85027689,-99999.0,'11111222,11111222,99999999' 
TABS,ioos:station:wmo:42045:1,1999-02-04T01:00:00Z,26.2168,-96.4998,2.0,135.2897522,20.96598436,-99999.0,'11111222,11111222,99999999' 
TABS,ioos:station:wmo:42045:1,1999-02-04T01:30:00Z,26.2168,-96.4998,2.0,141.1495056,20.66034124,-99999.0,'11111222,11111222,99999999' 
TABS,ioos:station:wmo:42045:1,1999-02-04T02:00:00Z,26.2168,-96.4998,2.0,138.4053441,19.52233593,-99999.0,'11111222,11111222,99999999' 
TABS,ioos:station:wmo:42045:1,1999-02-04T02:30:00Z,26.2168,-96.4998,2.0,132.8379147,16.8694339,-99999.0,'11111222,11111222,99999999' 
TABS,ioos:station:wmo:42045:1,1999-02-04T03:00:00Z,26.2168,-96.4998,2.0,142.8200084,16.26623804,-99999.0,'11111222,11111222,99999999' 
TABS,ioos:station:wmo:42045:1,1999-02-04T03:30:00Z,26.2168,-96.4998,2.0,140.535353,13.1214519,-99999.0,'11111222,11111222,99999999' 
TABS,ioos:station:wmo:42045:1,1999-02-04T04:00:00Z,26.2168,-96.4998,2.0,130.7471136,12.7772454,-99999.0,'11111222,11111222,99999999' 
TABS,ioos:station:wmo:42045:1,1999-02-04T04:30:00Z,26.2168,-96.4998,2.0,135.9945109,12.22064646,-99999.0,'11111222,11111222,99999999' 
TABS,ioos:station:wmo:42045:1,1999-02-04T05:00:00Z,26.2168,-96.4998,2.0,128.3101732,11.77572078,-99999.0,'11111222,11111222,99999999' 
TABS,ioos:station:wmo:42045:1,1999-02-04T05:30:00Z,26.2168,-96.4998,2.0,127.86222,11.89378409,-99999.0,'11111222,11111222,99999999' 
TABS,ioos:station:wmo:42045:1,1999-02-04T06:00:00Z,26.2168,-96.4998,2.0,134.9998948,10.74802307,-99999.0,'11111222,11111222,99999999' 
TABS,ioos:station:wmo:42045:1,1999-02-04T06:30:00Z,26.2168,-96.4998,2.0,118.9022895,9.86927049,-99999.0,'11133222,11111222,99999999' 
TABS,ioos:station:wmo:42045:1,1999-02-04T07:00:00Z,26.2168,-96.4998,2.0,122.7779568,10.45464968,-99999.0,'11111222,11111222,99999999' 
TABS,ioos:station:wmo:42045:1,1999-02-04T07:30:00Z,26.2168,-96.4998,2.0,132.0287385,10.23144662,-99999.0,'11111222,11111222,99999999' 
TABS,ioos:station:wmo:42045:1,1999-02-04T08:00:00Z,26.2168,-96.4998,2.0,129.6092384,11.21481609,-99999.0,'11111222,11111222,99999999' 
TABS,ioos:station:wmo:42045:1,1999-02-04T08:30:00Z,26.2168,-96.4998,2.0,120.0065667,12.21754885,-99999.0,'11111222,11111222,99999999' 
TABS,ioos:station:wmo:42045:1,1999-02-04T09:00:00Z,26.2168,-96.4998,2.0,117.6527504,10.60087261,-99999.0,'11111222,11111222,99999999' 
TABS,ioos:station:wmo:42045:1,1999-02-04T09:30:00Z,26.2168,-96.4998,2.0,122.8904383,11.5277925,-99999.0,'11111222,11111222,99999999' 
TABS,ioos:station:wmo:42045:1,1999-02-04T10:00:00Z,26.2168,-96.4998,2.0,113.0960641,11.01268814,-99999.0,'11111222,11111222,99999999' 
TABS,ioos:station:wmo:42045:1,1999-02-04T10:30:00Z,26.2168,-96.4998,2.0,108.4509235,11.31146763,-99999.0,'11111222,11111222,99999999' 
TABS,ioos:station:wmo:42045:1,1999-02-04T11:00:00Z,26.2168,-96.4998,2.0,99.24391316,12.07683733,-99999.0,'11111222,11111222,99999999' 
TABS,ioos:station:wmo:42045:1,1999-02-04T11:30:00Z,26.2168,-96.4998,2.0,100.39058,10.75639345,-99999.0,'11111222,11111222,99999999' 
TABS,ioos:station:wmo:42045:1,1999-02-04T12:00:00Z,26.2168,-96.4998,2.0,87.91659855,12.37818242,-99999.0,'11111222,11111222,99999999' 
TABS,ioos:station:wmo:42045:1,1999-02-04T12:30:00Z,26.2168,-96.4998,2.0,89.37994146,13.86081166,-99999.0,'11111222,11111222,99999999' 
TABS,ioos:station:wmo:42045:1,1999-02-04T13:00:00Z,26.2168,-96.4998,2.0,92.40260385,14.31258188,-99999.0,'11111222,11111222,99999999' 
TABS,ioos:station:wmo:42045:1,1999-02-04T13:30:00Z,26.2168,-96.4998,2.0,101.540263,14.14597116,-99999.0,'11111222,11111222,99999999' 
TABS,ioos:station:wmo:42045:1,1999-02-04T14:00:00Z,26.2168,-96.4998,2.0,96.35100035,17.53763097,-99999.0,'11111222,11111222,99999999' 
TABS,ioos:station:wmo:42045:1,1999-02-04T14:30:00Z,26.2168,-96.4998,2.0,104.4008822,16.76682737,-99999.0,'11111222,11111222,99999999' 
TABS,ioos:station:wmo:42045:1,1999-02-04T15:00:00Z,26.2168,-96.4998,2.0,96.28488069,21.74066466,-99999.0,'11111222,11111222,99999999' 
TABS,ioos:station:wmo:42045:1,1999-02-04T15:30:00Z,26.2168,-96.4998,2.0,98.55532077,23.05655872,-99999.0,'11111222,11111222,99999999' 
TABS,ioos:station:wmo:42045:1,1999-02-04T16:00:00Z,26.2168,-96.4998,2.0,110.4584647,21.3143942,-99999.0,'11111222,11111222,99999999' 
TABS,ioos:station:wmo:42045:1,1999-02-04T16:30:00Z,26.2168,-96.4998,2.0,109.5511093,12.01261004,-99999.0,'11111222,11111222,99999999' 
TABS,ioos:station:wmo:42045:1,1999-02-04T17:00:00Z,26.2168,-96.4998,2.0,110.0411561,26.96268718,-99999.0,'11111222,11111222,99999999' 
TABS,ioos:station:wmo:42045:1,1999-02-04T17:30:00Z,26.2168,-96.4998,2.0,113.1011169,23.1677405,-99999.0,'11111222,11111222,99999999' 
TABS,ioos:station:wmo:42045:1,1999-02-04T18:00:00Z,26.2168,-96.4998,2.0,112.1321223,18.9783798,-99999.0,'11111222,11111222,99999999' 
TABS,ioos:station:wmo:42045:1,1999-02-04T18:30:00Z,26.2168,-96.4998,2.0,121.9112419,20.01490694,-99999.0,'11111222,11111222,99999999' 
TABS,ioos:station:wmo:42045:1,1999-02-04T19:00:00Z,26.2168,-96.4998,2.0,132.2163044,19.51088414,-99999.0,'11111222,11111222,99999999' 
TABS,ioos:station:wmo:42045:1,1999-02-04T19:30:00Z,26.2168,-96.4998,2.0,147.5693822,9.715147966,-99999.0,'11133222,11111222,99999999' 
TABS,ioos:station:wmo:42045:1,1999-02-05T11:30:00Z,26.2168,-96.4998,2.0,77.99331977,9.998739921,-99999.0,'11133222,11111222,99999999' 
TABS,ioos:station:wmo:42045:1,1999-02-05T12:00:00Z,26.2168,-96.4998,2.0,66.99695993,10.00560843,-99999.0,'11111222,11111222,99999999' 
TABS,ioos:station:wmo:42045:1,1999-02-05T13:00:00Z,26.2168,-96.4998,2.0,51.01969828,12.00214148,-99999.0,'11111222,11111222,99999999' 
TABS,ioos:station:wmo:42045:1,1999-02-05T13:30:00Z,26.2168,-96.4998,2.0,250.0246764,12.0020165,-99999.0,'11111222,11111222,99999999' 
TABS,ioos:station:wmo:42045:1,1999-02-05T14:00:00Z,26.2168,-96.4998,2.0,158.9966159,11.99708298,-99999.0,'11111222,11111222,99999999' 
TABS,ioos:station:wmo:42045:1,1999-02-05T21:30:00Z,26.2168,-96.4998,2.0,69.99117199,18.99664444,-99999.0,'11111222,11111222,99999999' 
TABS,ioos:station:wmo:42045:1,1999-02-06T06:30:00Z,26.2168,-96.4998,2.0,119.9934969,8.001556099,-99999.0,'11133222,11111222,99999999' 
TABS,ioos:station:wmo:42045:1,1999-02-06T07:00:00Z,26.2168,-96.4998,2.0,120.0088451,6.998114032,-99999.0,'11133222,11111222,99999999' 
TABS,ioos:station:wmo:42045:1,1999-02-06T07:30:00Z,26.2168,-96.4998,2.0,116.981328,8.000862454,-99999.0,'11133222,11111222,99999999' 
TABS,ioos:station:wmo:42045:1,1999-02-06T08:00:00Z,26.2168,-96.4998,2.0,105.0093243,8.996943926,-99999.0,'11133222,11111222,99999999' 
TABS,ioos:station:wmo:42045:1,1999-02-06T08:30:00Z,26.2168,-96.4998,2.0,103.0107003,7.995254843,-99999.0,'11133222,11111222,99999999' 
TABS,ioos:station:wmo:42045:1,1999-02-06T09:00:00Z,26.2168,-96.4998,2.0,95.99566191,8.999227745,-99999.0,'11133222,11111222,99999999' 
TABS,ioos:station:wmo:42045:1,1999-02-06T09:30:00Z,26.2168,-96.4998,2.0,95.99566191,8.999227745,-99999.0,'11133222,11111222,99999999' 
TABS,ioos:station:wmo:42045:1,1999-02-06T10:00:00Z,26.2168,-96.4998,2.0,80.95502454,6.997006503,-99999.0,'11133222,11111222,99999999' 
TABS,ioos:station:wmo:42045:1,1999-02-06T21:30:00Z,26.2168,-96.4998,2.0,40.09557099,29.60890744,-99999.0,'11111222,11111222,99999999' 
TABS,ioos:station:wmo:42045:1,1999-02-06T22:00:00Z,26.2168,-96.4998,2.0,38.18790368,28.4355218,-99999.0,'11111222,11111222,99999999' 
TABS,ioos:station:wmo:42045:1,1999-02-06T22:30:00Z,26.2168,-96.4998,2.0,44.55642041,27.39413806,-99999.0,'11111222,11111222,99999999' 
TABS,ioos:station:wmo:42045:1,1999-02-06T23:00:00Z,26.2168,-96.4998,2.0,33.33851679,27.11148281,-99999.0,'11111222,11111222,99999999' 
TABS,ioos:station:wmo:42045:1,1999-02-06T23:30:00Z,26.2168,-96.4998,2.0,69.00226178,28.99546516,-99999.0,'11111222,11111222,99999999' 
TABS,ioos:station:wmo:42045:1,1999-02-07T00:00:00Z,26.2168,-96.4998,2.0,30.9989893,27.99886426,-99999.0,'11111222,11111222,99999999' 
TABS,ioos:station:wmo:42045:1,1999-02-07T00:30:00Z,26.2168,-96.4998,2.0,32.99300672,30.99894192,-99999.0,'11111222,11111222,99999999' 
TABS,ioos:station:wmo:42045:1,1999-02-07T01:00:00Z,26.2168,-96.4998,2.0,77.82292035,31.09973633,-99999.0,'11111222,11111222,99999999' 
TABS,ioos:station:wmo:42045:1,1999-02-07T01:30:00Z,26.2168,-96.4998,2.0,81.00186724,28.00464247,-99999.0,'11111222,11111222,99999999' 
TABS,ioos:station:wmo:42045:1,1999-02-07T02:00:00Z,26.2168,-96.4998,2.0,34.00803211,27.99892319,-99999.0,'11111222,11111222,99999999' 
TABS,ioos:station:wmo:42045:1,1999-02-07T02:30:00Z,26.2168,-96.4998,2.0,81.00186724,28.00464247,-99999.0,'11111222,11111222,99999999' 
TABS,ioos:station:wmo:42045:1,1999-02-07T03:00:00Z,26.2168,-96.4998,2.0,90.0,26.22,-99999.0,'11111222,11111222,99999999' 
TABS,ioos:station:wmo:42045:1,1999-02-07T03:30:00Z,26.2168,-96.4998,2.0,90.67855863,25.33177649,-99999.0,'11111222,11111222,99999999' 
TABS,ioos:station:wmo:42045:1,1999-02-07T04:00:00Z,26.2168,-96.4998,2.0,89.29673362,24.44184117,-99999.0,'11111222,11111222,99999999' 
TABS,ioos:station:wmo:42045:1,1999-02-07T04:30:00Z,26.2168,-96.4998,2.0,98.07914743,22.27104398,-99999.0,'11111222,11111222,99999999' 
TABS,ioos:station:wmo:42045:1,1999-02-07T05:00:00Z,26.2168,-96.4998,2.0,108.99251,12.9975767,-99999.0,'11111222,11111222,99999999' 
TABS,ioos:station:wmo:42045:1,1999-02-07T05:30:00Z,26.2168,-96.4998,2.0,105.5736318,16.09075511,-99999.0,'11111222,11111222,99999999' 
TABS,ioos:station:wmo:42045:1,1999-02-07T06:00:00Z,26.2168,-96.4998,2.0,107.9819851,16.00162492,-99999.0,'11111222,11111222,99999999' 
TABS,ioos:station:wmo:42045:1,1999-02-07T06:30:00Z,26.2168,-96.4998,2.0,107.4895188,14.37450869,-99999.0,'11111222,11111222,99999999' 
TABS,ioos:station:wmo:42045:1,1999-02-07T07:00:00Z,26.2168,-96.4998,2.0,110.2063713,13.80994207,-99999.0,'11111222,11111222,99999999' 
TABS,ioos:station:wmo:42045:1,1999-02-07T07:30:00Z,26.2168,-96.4998,2.0,106.9975664,11.22012923,-99999.0,'11111222,11111222,99999999' 
TABS,ioos:station:wmo:42045:1,1999-02-07T08:00:00Z,26.2168,-96.4998,2.0,107.9920107,9.00011111,-99999.0,'11133222,11111222,99999999' 
TABS,ioos:station:wmo:42045:1,1999-02-07T08:30:00Z,26.2168,-96.4998,2.0,105.0088786,10.00118493,-99999.0,'11111222,11111222,99999999' 
TABS,ioos:station:wmo:42045:1,1999-02-07T09:00:00Z,26.2168,-96.4998,2.0,101.9746892,12.00115411,-99999.0,'11111222,11111222,99999999' 
TABS,ioos:station:wmo:42045:1,1999-02-07T09:30:00Z,26.2168,-96.4998,2.0,103.0074744,9.996504389,-99999.0,'11133222,11111222,99999999' 
TABS,ioos:station:wmo:42045:1,1999-02-07T10:00:00Z,26.2168,-96.4998,2.0,103.0390945,12.5434166,-99999.0,'11111222,11111222,99999999' 
TABS,ioos:station:wmo:42045:1,1999-02-07T10:30:00Z,26.2168,-96.4998,2.0,101.5361314,14.9010201,-99999.0,'11111222,11111222,99999999' 
TABS,ioos:station:wmo:42045:1,1999-02-07T11:00:00Z,26.2168,-96.4998,2.0,105.1431445,14.81441528,-99999.0,'11111222,11111222,99999999' 
TABS,ioos:station:wmo:42045:1,1999-02-07T11:30:00Z,26.2168,-96.4998,2.0,102.0003751,13.99586367,-99999.0,'11111222,11111222,99999999' 
TABS,ioos:station:wmo:42045:1,1999-02-07T12:00:00Z,26.2168,-96.4998,2.0,103.0026384,16.00025312,-99999.0,'11111222,11111222,99999999' 
TABS,ioos:station:wmo:42045:1,1999-02-07T12:30:00Z,26.2168,-96.4998,2.0,110.9995009,13.00366102,-99999.0,'11111222,11111222,99999999' 
TABS,ioos:station:wmo:42045:1,1999-02-07T13:00:00Z,26.2168,-96.4998,2.0,128.9851191,10.99949544,-99999.0,'11111222,11111222,99999999' 
TABS,ioos:station:wmo:42045:1,1999-02-07T13:30:00Z,26.2168,-96.4998,2.0,158.8764544,9.101565799,-99999.0,'11133222,11111222,99999999' 
TABS,ioos:station:wmo:42045:1,1999-02-07T14:00:00Z,26.2168,-96.4998,2.0,162.153517,9.234338092,-99999.0,'11133222,11111222,99999999' 
TABS,ioos:station:wmo:42045:1,1999-02-07T14:30:00Z,26.2168,-96.4998,2.0,307.7882737,18.47437144,-99999.0,'11111222,11111222,99999999' 
TABS,ioos:station:wmo:42045:1,1999-02-07T15:00:00Z,26.2168,-96.4998,2.0,5.226125647,1.646845469,-99999.0,'11133222,11111222,99999999' 
TABS,ioos:station:wmo:42045:1,1999-02-07T15:30:00Z,26.2168,-96.4998,2.0,125.7696431,38.74914322,-99999.0,'11111222,11111222,99999999' 
TABS,ioos:station:wmo:42045:1,1999-02-07T16:00:00Z,26.2168,-96.4998,2.0,101.0004418,10.16680874,-99999.0,'11111222,11111222,99999999' 
TABS,ioos:station:wmo:42045:1,1999-02-07T16:30:00Z,26.2168,-96.4998,2.0,100.0690392,11.95412063,-99999.0,'11111222,11111222,99999999' 
TABS,ioos:station:wmo:42045:1,1999-02-07T17:00:00Z,26.2168,-96.4998,2.0,92.40260385,7.156290939,-99999.0,'11133222,11111222,99999999' 
TABS,ioos:station:wmo:42045:1,1999-02-07T17:30:00Z,26.2168,-96.4998,2.0,112.2135503,14.97114558,-99999.0,'11111222,11111222,99999999' 
TABS,ioos:station:wmo:42045:1,1999-02-07T18:00:00Z,26.2168,-96.4998,2.0,349.2369684,12.74420653,-99999.0,'11111222,11111222,99999999' 
TABS,ioos:station:wmo:42045:1,1999-02-07T18:30:00Z,26.2168,-96.4998,2.0,26.17276972,9.794207472,-99999.0,'11133222,11111222,99999999' 
TABS,ioos:station:wmo:42045:1,1999-02-07T19:00:00Z,26.2168,-96.4998,2.0,358.8695222,7.601480119,-99999.0,'11133222,11111222,99999999' 
TABS,ioos:station:wmo:42045:1,1999-02-07T19:30:00Z,26.2168,-96.4998,2.0,43.98791998,6.004273478,-99999.0,'11133222,11111222,99999999' 
TABS,ioos:station:wmo:42045:1,1999-02-07T20:00:00Z,26.2168,-96.4998,2.0,37.97883142,7.751451477,-99999.0,'11133222,11111222,99999999' 
TABS,ioos:station:wmo:42045:1,1999-02-07T20:30:00Z,26.2168,-96.4998,2.0,9.471962147,9.965866746,-99999.0,'11133222,11111222,99999999' 
TABS,ioos:station:wmo:42045:1,1999-02-07T21:00:00Z,26.2168,-96.4998,2.0,18.84146146,13.37677091,-99999.0,'11111222,11111222,99999999' 
TABS,ioos:station:wmo:42045:1,1999-02-09T12:30:00Z,26.2168,-96.4998,2.0,86.9909833,16.00206237,-99999.0,'11111222,11111222,99999999' 
TABS,ioos:station:wmo:42045:1,1999-02-09T13:00:00Z,26.2168,-96.4998,2.0,81.01593753,12.99948076,-99999.0,'11111222,11111222,99999999' 
TABS,ioos:station:wmo:42045:1,1999-02-09T13:30:00Z,26.2168,-96.4998,2.0,77.98780449,16.00035625,-99999.0,'11111222,11111222,99999999' 
TABS,ioos:station:wmo:42045:1,1999-02-09T14:00:00Z,26.2168,-96.4998,2.0,91.00257146,12.00183736,-99999.0,'11111222,11111222,99999999' 
TABS,ioos:station:wmo:42045:1,1999-02-09T23:30:00Z,26.2168,-96.4998,2.0,85.00304978,30.99781283,-99999.0,'11111222,11111222,99999999' 
TABS,ioos:station:wmo:42045:1,1999-02-10T00:00:00Z,26.2168,-96.4998,2.0,354.9943896,22.00392692,-99999.0,'11111222,11111222,99999999' 
TABS,ioos:station:wmo:42045:1,1999-02-10T00:30:00Z,26.2168,-96.4998,2.0,45.99195709,29.00279469,-99999.0,'11111222,11111222,99999999' 
TABS,ioos:station:wmo:42045:1,1999-02-10T01:00:00Z,26.2168,-96.4998,2.0,57.00350683,21.99824766,-99999.0,'11111222,11111222,99999999' 
TABS,ioos:station:wmo:42045:1,1999-02-10T01:30:00Z,26.2168,-96.4998,2.0,47.9876474,26.99867589,-99999.0,'11111222,11111222,99999999' 
TABS,ioos:station:wmo:42045:1,1999-02-10T20:00:00Z,26.2168,-96.4998,2.0,6.996020635,22.00381785,-99999.0,'11111222,11111222,99999999' 
TABS,ioos:station:wmo:42045:1,1999-02-10T20:30:00Z,26.2168,-96.4998,2.0,3.989958161,22.99573004,-99999.0,'11111222,11111222,99999999' 
TABS,ioos:station:wmo:42045:1,1999-02-10T21:30:00Z,26.2168,-96.4998,2.0,6.988989621,23.99830827,-99999.0,'11111222,11111222,99999999' 
TABS,ioos:station:wmo:42045:1,1999-02-10T22:00:00Z,26.2168,-96.4998,2.0,5.99360551,24.99663377,-99999.0,'11111222,11111222,99999999' 
TABS,ioos:station:wmo:42045:1,1999-02-11T10:00:00Z,26.2168,-96.4998,2.0,35.99321136,42.99903487,-99999.0,'11111222,11111222,99999999' 
TABS,ioos:station:wmo:42045:1,1999-02-11T10:30:00Z,26.2168,-96.4998,2.0,39.00195219,44.99914777,-99999.0,'11111222,11111222,99999999' 
TABS,ioos:station:wmo:42045:1,1999-02-11T12:00:00Z,26.2168,-96.4998,2.0,53.99332532,46.99933297,-99999.0,'11111222,11111222,99999999' 
TABS,ioos:station:wmo:42045:1,1999-02-11T13:00:00Z,26.2168,-96.4998,2.0,58.0044876,61.99821691,-99999.0,'11111222,11111222,99999999' 
TABS,ioos:station:wmo:42045:1,1999-02-11T14:30:00Z,26.2168,-96.4998,2.0,246.9978017,39.00086666,-99999.0,'11111222,11111222,99999999' 
TABS,ioos:station:wmo:42045:1,1999-02-12T08:00:00Z,26.2168,-96.4998,2.0,198.9983728,54.00166664,-99999.0,'11111222,11111222,99999999' 
TABS,ioos:station:wmo:42045:1,1999-02-12T09:30:00Z,26.2168,-96.4998,2.0,204.0013617,54.99522252,-99999.0,'11111222,11111222,99999999' 
TABS,ioos:station:wmo:42045:1,1999-02-12T10:30:00Z,26.2168,-96.4998,2.0,206.9977238,58.00078706,-99999.0,'11111222,11111222,99999999' 
TABS,ioos:station:wmo:42045:1,1999-02-12T11:00:00Z,26.2168,-96.4998,2.0,206.9977238,58.00078706,-99999.0,'11111222,11111222,99999999' 
TABS,ioos:station:wmo:42045:1,1999-02-12T11:30:00Z,26.2168,-96.4998,2.0,213.9997913,60.99849998,-99999.0,'11111222,11111222,99999999' 